SCP
0 0 0 0 0 0 0 0 0 0 0 0 0 0 0 0 0 0 0 0 0 0 0 0 0 0 0 0 0 0 0 0 0 0 0 0 0 0 0 0 0 0 0 0 0 0 0
0 0 0 0 0 0 0 0 0 0 0 0 0 0 0 0 0 0 0 0 0 0 0 0 0 0 0 0 0 0 0 0 0 0 0 0 0 0 0 0 0 0 0 0 0 0 0
0 0 0 0 0 0 0 0 0 0 0 0 0 0 0 0 0 0 0 0 0 0 0 0 0 0 0 0 0 0 0 0 0 0 0 0 0 0 0 0 0 0 0 0 0 0 0
0 0 0 0 0 0 0 0 0 0 0 0 0 0 0 0 0 0 0 0 0 0 0 0 -0 0 0 0 0 0 0 0 0 0 0 0 0 0 0 0 0 0 0 0 0 0 0
0 0 0 0 0 0 0 0 0 0 0 0 0 0 0 0 0 0 0 0 0 0 0 0 -0 0 0 0 0 0 0 0 0 0 0 0 0 0 0 0 0 0 0 0 0 0 0
0 0 0 0 0 0 0 0 0 0 0 0 0 0 0 0 0 -0 -0 0 0 0 0 0 0 0 0 0 0 0 0 0 0 0 0 0 0 0 0 0 0 0 0 0 0 0 0
0 0 0 0 0 0 0 0 0 0 0 0 0 0 0 0 0 0 0 0 0 0 0 0 0 0 0 0 0 0 0 0 0 0 0 0 0 0 0 0 0 0 0 0 0 0 0
0 0 0 0 0 0 0 0 0 0 0 0 0 0 0 0 0 0 0 0 0 0 0 0 0 0 0 0 0 0 0 0 0 0 0 0 0 0 0 0 0 0 0 0 0 0 0
0 0 0 0 0 0 0 0 0 0 0 0 0 0 0 0 0 -0 0 0 0 0 0 0 0 0 0 0 0 0 0 0 0 0 0 0 0 0 0 0 0 0 0 0 0 0 0
0 0 0 0 0 0 0 0 0 0 0 0 0 0 0 0 0 0 0 0 0 0 0 0 0 0 0 0 0 0 0 0 0 0 0 0 0 0 0 0 0 0 0 0 0 0 0
0 0 0 0 0 0 0 0 0 0 0 0 0 0 0 0 0 0 0 0 0 0 0 0 0 0 0 0 0 0 0 0 0 0 0 0 0 0 0 0 0 0 0 -0 -0 0 -0
0 0 0 0 0 0 0 0 0 0 0 0 0 0 0 0 0 0 0 0 0 0 0 0 0 0 0 0 0 0 0 0 0 0 0 0 0 0 0 0 0 0 0 -0 0 0 0
0 0 0 0 0 0 0 0 0 0 0 0 0 0 0 0 0 0 0 0 0 0 0 0 0 0 0 0 0 0 0 0 0 0 0 0 0 0 0 0 0 0 0 0 -0 0 0
0 0 0 0 0 0 0 0 0 0 0 0 0 0 0 0 0 0 0 0 0 0 0 0 0 0 0 0 0 -0 0 0 0 0 0 0 0 0 0 0 0 0 0 0 0 0 0
0 0 0 0 0 0 0 0 0 0 0 0 0 0 0 0 0 0 0 0 0 0 0 0 0 0 0 0 0 -0 0 0 0 0 0 0 0 0 0 0 0 0 0 0 0 0 0
0 0 0 0 0 0 0 0 0 0 0 0 0 0 0 0 0 0 0 0 0 0 0 0 0 0 0 0 0 -0 -0 0 0 0 0 0 0 0 0 0 0 0 0 0 0 0 0
0 0 0 0 0 0 0 0 0 0 0 0 0 0 0 0 0 0 0 0 0 0 0 0 0 0 0 0 0 -0 -0 0 0 0 0 0 0 0 0 0 0 0 0 0 0 0 0
0 0 0 0 0 0 0 0 0 0 0 0 0 0 0 0 0 0 0 0 0 0 0 0 0 0 0 0 0 -0 -0 -0 0 0 0 0 0 0 0 0 0 0 0 0 0 0 0
0 0 0 0 0 0 0 0 0 0 0 0 0 0 0 0 0 0 0 0 0 0 0 0 0 0 0 0 0 0 0 0 0 0 0 0 0 0 0 0 0 0 0 0 0 0 0
0 0 0 0 0 0 0 0 0 0 0 0 0 0 0 0 0 0 0 0 0 0 0 0 0 0 0 0 0 0 0 0 0 0 0 0 0 0 0 0 0 0 0 0 0 0 0
0 0 0 0 0 0 0 0 0 0 0 0 0 0 0 0 0 0 0 0 0 0 0 0 0 0 0 0 0 0 0 0 0 0 0 0 0 0 0 0 0 0 0 0 0 0 0
0 0 0 0 0 0 0 0 0 0 0 0 0 0 0 0 0 0 0 0 0 0 0 0 0 0 0 0 0 0 0 0 0 0 0 0 0 0 0 0 0 0 0 0 0 0 0
0 0 0 0 0 0 0 0 0 0 0 0 0 0 0 0 0 0 0 0 0 0 0 0 0 0 0 0 0 0 0 0 0 0 0 0 0 0 0 0 0 0 0 0 0 0 0
0 0 0 0 0 0 0 0 0 0 0 0 0 0 0 0 0 0 0 0 0 0 0 0 0 0 0 0 0 0 0 0 0 0 0 0 0 0 0 0 0 0 0 0 0 0 0
0 0 0 0 0 0 0 0 0 0 0 0 0 0 0 0 0 0 0 0 0 0 0 0 0 0 0 0 0 0 0 0 0 0 0 0 0 0 0 0 0 0 0 0 0 0 0
0 0 0 0 0 0 0 0 0 0 0 0 0 0 0 0 0 0 0 0 0 0 0 0 0 0 0 0 0 0 0 0 0 0 0 0 0 0 0 0 0 0 0 0 0 0 0
0 0 0 0 0 0 0 0 0 0 0 0 0 0 0 0 0 0 0 0 0 0 0 0 0 0 0 0 0 0 0 0 0 0 0 0 0 0 0 0 0 0 0 0 0 0 0
0 0 0 0 0 0 0 0 0 0 0 0 0 0 0 0 0 0 0 0 0 0 0 0 0 0 0 0 0 0 0 0 0 0 0 0 0 0 0 0 0 0 0 0 0 0 0
0 0 0 0 0 0 0 0 0 0 0 0 0 0 0 0 0 0 0 0 0 0 0 0 0 0 0 0 0 0 0 0 0 0 0 0 0 0 0 0 0 0 0 0 0 0 0
Wind_Speed_500mb
13 15 14 14 12 11 12 13 14 18 22 26 28 30 34 38 41 47 50 47 51 38 29 21 13 9 9 8 9 39 46 35 22 19 20 22 22 22 16 23 38 33 32 37 36 41 43
15 16 17 16 16 14 14 14 17 19 23 25 29 31 35 39 43 48 49 47 46 29 18 19 12 8 8 3 24 31 36 34 29 24 30 30 24 26 28 27 22 32 38 38 42 45 46
16 16 19 20 17 18 17 18 19 20 23 26 29 32 35 39 43 48 45 47 33 23 13 20 8 13 9 6 21 37 37 36 28 35 41 27 21 18 16 20 24 29 33 32 37 44 21
22 17 20 22 21 20 19 19 21 21 24 27 30 33 36 40 44 48 42 45 26 15 9 13 6 11 4 20 33 30 43 53 35 14 10 10 10 19 24 23 30 31 27 23 17 4 17
26 21 21 23 24 24 21 21 20 23 25 27 30 33 37 40 44 46 41 35 20 15 10 11 24 5 6 17 48 36 49 53 33 10 12 4 6 12 13 13 15 7 22 33 30 31 30
29 25 23 22 25 27 26 24 21 23 26 27 29 32 38 41 45 42 39 23 12 19 7 8 18 4 10 27 26 39 64 41 14 18 8 8 6 8 4 11 15 29 28 24 37 32 39
32 29 26 25 24 28 30 25 24 24 27 28 29 31 37 42 45 35 36 14 11 8 18 16 6 2 19 40 20 46 73 22 22 7 13 9 6 13 22 17 23 29 32 40 37 33 26
36 31 29 25 24 27 30 28 27 25 28 29 29 30 35 41 46 28 30 14 7 6 5 9 16 9 18 23 17 48 64 24 20 17 24 2 11 20 24 26 29 31 41 40 31 22 25
39 34 31 26 27 24 27 30 30 28 29 30 29 30 33 40 41 37 30 30 10 16 2 2 6 5 15 21 14 40 48 23 18 17 19 5 13 23 28 28 33 34 36 28 38 42 35
43 39 35 33 29 29 27 33 37 31 30 31 29 29 32 35 20 33 26 33 4 12 4 6 2 12 22 11 3 36 35 15 12 11 13 11 17 28 26 26 38 35 31 40 40 17 9
50 47 43 40 39 33 34 36 34 35 31 31 28 28 30 33 30 18 32 21 11 8 4 7 5 11 16 20 18 36 31 15 10 16 3 7 19 23 16 31 43 15 48 37 35 15 3
53 53 49 48 47 41 38 40 34 35 29 30 27 27 28 32 32 24 32 8 9 6 4 5 5 12 14 26 11 26 17 41 2 9 9 11 22 5 14 35 24 51 33 20 4 5 0
62 61 54 54 50 47 35 40 35 35 29 29 28 25 27 29 18 30 24 7 7 9 6 14 8 12 12 12 10 18 15 24 17 15 14 23 9 11 24 31 12 39 31 8 7 5 7
62 65 58 56 60 48 39 39 33 35 28 28 28 25 28 26 17 24 9 1 12 0 5 3 7 13 6 12 9 24 12 11 20 13 7 12 13 12 12 11 21 20 10 6 8 9 9
37 71 69 64 63 56 45 39 35 33 27 26 26 26 26 15 17 13 4 9 8 5 4 7 6 4 4 5 8 13 9 12 12 14 9 11 9 14 15 10 31 17 11 15 8 9 6
48 45 64 61 67 61 49 41 34 28 27 23 23 25 21 9 14 2 6 6 6 5 2 2 7 4 6 11 11 14 14 8 12 19 6 5 12 10 5 15 20 10 12 6 6 11 12
28 33 51 70 59 61 51 44 33 28 25 18 16 11 6 5 1 3 5 6 5 6 2 3 6 4 5 7 9 7 12 3 15 16 13 1 4 13 12 12 16 16 9 8 4 4 4
37 23 35 41 58 59 54 46 36 32 22 16 7 3 3 2 5 5 5 9 7 8 4 5 5 0 2 3 6 5 7 7 25 20 9 5 5 8 7 10 11 19 14 8 5 11 2
49 44 26 35 40 60 56 48 38 33 25 15 7 6 5 7 5 3 1 3 3 7 8 7 6 6 3 3 2 3 8 8 16 15 7 9 6 8 9 5 7 9 20 19 9 4 6
53 58 37 34 41 52 61 48 41 32 29 27 6 1 5 7 6 10 9 6 6 3 5 5 5 8 4 2 4 7 7 2 6 12 4 3 2 7 9 12 2 7 13 24 10 4 12
54 61 55 39 33 45 66 51 44 38 34 29 11 5 6 3 3 6 5 13 9 8 3 9 5 10 10 4 4 7 8 8 6 12 3 4 3 1 10 6 3 4 2 11 10 8 3
55 59 59 54 44 45 66 54 49 44 42 39 11 9 8 5 9 11 4 10 13 8 13 6 7 7 9 9 9 11 2 3 5 13 11 2 4 5 8 9 8 10 7 3 8 10 7
42 58 57 58 53 37 68 58 57 56 56 25 34 14 7 7 6 6 7 10 12 19 7 8 13 9 4 14 14 15 12 9 6 1 6 8 6 7 7 8 7 8 4 4 0 1 5
47 47 55 56 62 51 43 73 68 63 61 46 29 21 13 4 3 8 9 7 9 6 10 9 11 6 4 4 8 4 8 13 16 12 13 7 7 2 8 6 10 10 2 15 11 6 4
48 47 50 54 60 60 42 55 77 71 66 62 33 22 13 5 8 5 17 11 18 12 6 9 8 7 5 3 3 5 4 6 6 4 10 9 5 7 3 1 5 2 8 10 9 5 9
52 49 52 49 56 61 54 47 63 70 69 60 62 32 10 17 14 11 13 18 8 6 4 5 7 12 4 3 1 1 5 4 3 6 8 9 6 2 5 2 4 9 6 18 8 6 20
56 53 50 52 44 64 66 46 62 78 75 67 60 44 19 7 16 25 8 11 16 10 6 9 9 8 11 3 3 5 5 1 2 7 9 4 4 7 4 5 11 7 22 18 9 10 40
62 56 54 53 55 55 66 51 50 72 83 73 66 53 37 12 21 25 17 12 17 15 8 20 10 5 1 3 4 3 4 7 0 6 10 12 10 7 3 2 12 32 18 12 12 36 47
63 59 58 52 60 53 63 47 46 65 76 78 63 59 47 19 13 24 23 16 16 20 15 32 4 9 12 4 1 4 3 3 2 5 2 4 10 6 12 9 4 50 5 15 50 59 45
Wind_Direction_500mb
314 315 307 312 317 322 326 327 330 330 334 334 339 343 341 344 346 343 344 345 341 342 344 354 9 31 124 88 42 332 336 352 2 332 323 319 309 306 280 314 312 283 277 284 305 310 306
306 309 308 303 311 316 316 319 322 323 328 332 335 338 339 342 344 343 343 346 342 346 356 8 3 101 94 118 344 335 335 340 328 319 311 301 287 296 288 272 268 300 301 297 292 286 284
295 304 305 303 307 310 312 313 315 322 325 328 331 334 337 340 344 343 345 345 348 352 11 21 48 113 73 72 2 330 349 332 320 299 301 298 279 269 298 306 290 303 288 286 277 266 249
291 293 295 301 305 301 306 309 311 322 322 326 327 332 335 339 344 344 347 346 353 12 32 29 76 69 61 349 352 341 347 337 334 324 313 311 284 267 265 274 291 272 265 276 303 182 276
287 286 293 298 299 299 299 300 309 317 320 323 325 331 333 338 344 345 349 350 8 10 80 64 32 24 70 340 335 357 337 341 328 341 310 289 308 270 307 275 299 16 323 312 308 317 320
286 278 288 293 297 296 298 295 310 312 315 318 323 330 331 337 343 345 352 356 25 41 83 31 27 356 38 340 345 358 345 356 339 333 276 246 279 267 217 335 312 311 304 301 301 311 297
287 280 284 286 290 297 292 301 303 308 310 314 321 329 330 336 342 347 357 18 360 38 59 74 19 294 315 343 8 349 358 17 3 331 353 317 297 0 331 321 299 293 307 307 304 302 2
281 280 280 281 285 288 297 300 301 308 307 310 318 326 331 336 340 347 1 21 342 245 115 42 30 350 320 0 338 359 8 31 356 11 341 56 30 351 318 295 314 321 313 305 302 335 319
271 275 273 274 284 290 297 307 301 304 305 307 314 323 331 336 339 344 4 4 354 148 253 50 347 348 1 1 18 7 7 349 342 355 348 346 334 331 335 334 327 320 302 315 312 317 288
265 266 266 270 275 284 290 300 300 298 300 303 311 321 328 339 342 343 347 349 43 143 96 348 13 355 351 325 162 357 5 18 16 337 344 290 328 346 340 317 340 315 336 310 301 319 296
262 263 264 268 277 279 285 287 289 293 294 298 305 316 327 336 333 339 338 344 127 105 338 351 30 26 2 56 330 345 10 357 2 323 14 317 319 332 320 336 331 309 313 301 289 261 256
257 258 261 267 275 276 280 283 288 282 285 290 298 311 322 330 331 334 340 19 100 58 320 54 60 11 2 31 15 344 3 19 340 292 278 281 287 350 352 332 320 335 314 298 202 125 261
255 256 259 265 270 274 269 277 281 275 279 285 294 305 316 322 313 330 337 62 38 80 332 338 337 350 320 349 335 348 347 42 32 354 10 317 78 14 9 334 360 345 353 356 20 29 44
263 255 254 265 263 267 263 270 277 273 274 281 288 302 308 313 310 333 353 250 68 323 278 60 348 313 38 6 344 332 353 4 46 12 295 353 343 26 342 47 330 346 37 55 346 346 321
275 257 255 261 257 259 258 261 268 266 268 277 290 299 304 318 318 331 69 54 171 213 286 3 334 335 1 23 357 330 76 5 30 51 42 347 293 346 47 21 18 323 29 290 274 211 266
295 266 248 263 247 250 249 253 257 261 260 272 290 305 290 268 323 349 73 129 120 59 168 57 58 55 319 336 8 359 9 36 354 34 97 353 295 314 96 7 24 10 337 4 326 17 338
312 286 275 253 248 248 243 243 244 255 252 264 293 299 260 290 353 77 112 128 139 132 191 90 113 282 263 332 329 331 334 88 17 3 324 74 180 301 39 31 27 5 17 322 237 92 259
287 300 264 274 255 247 240 237 234 241 240 245 255 293 230 297 52 46 98 142 125 146 210 128 121 234 235 67 289 299 316 341 9 355 329 79 285 288 212 200 73 85 351 330 45 321 239
269 277 289 293 259 243 232 232 227 230 225 214 234 252 224 187 154 119 143 62 141 157 175 170 148 133 53 205 354 265 315 35 6 24 11 328 335 315 336 269 101 35 358 341 287 276 295
261 271 291 295 304 250 229 223 219 219 213 206 246 309 199 178 148 137 148 167 145 183 135 138 100 128 132 235 209 291 291 317 11 13 352 250 304 145 187 222 210 23 342 354 357 58 318
261 263 275 278 320 269 229 216 211 209 206 199 216 242 186 190 241 128 118 148 141 172 229 167 191 200 190 178 185 236 250 290 139 352 108 49 247 139 276 237 225 130 352 14 11 344 58
268 256 260 266 283 289 236 213 206 202 200 202 204 173 155 120 134 127 175 216 163 157 152 204 178 177 173 194 204 196 130 20 12 332 349 45 290 128 270 240 164 313 73 73 40 343 306
278 269 252 260 267 296 242 216 206 205 199 194 209 214 180 160 135 128 209 177 191 144 193 138 175 145 202 244 254 240 242 254 245 122 325 323 338 5 292 181 148 5 316 91 341 270 290
268 274 261 248 259 270 281 230 213 209 209 202 201 189 186 171 185 201 155 138 152 174 140 149 161 139 170 249 296 237 237 242 244 234 172 323 333 346 280 77 37 242 46 138 138 217 265
268 269 272 248 251 259 268 255 219 212 208 208 208 200 191 146 170 146 158 124 114 116 88 146 151 187 184 343 297 349 317 27 307 253 194 176 296 307 54 276 209 161 222 175 148 288 194
261 261 262 255 249 255 258 267 253 224 212 208 211 213 202 140 219 138 153 169 148 136 110 124 178 191 167 272 323 109 252 197 311 10 208 165 192 304 343 116 226 211 217 138 116 348 185
255 255 255 252 244 250 250 261 255 233 214 208 212 212 208 181 164 163 178 176 162 144 106 146 164 171 181 180 212 196 266 136 209 174 183 226 230 222 238 270 292 178 155 149 84 220 170
251 252 250 252 242 244 247 254 246 247 219 206 207 210 208 202 179 195 179 161 153 168 153 147 115 198 134 150 181 212 199 206 52 200 177 173 161 212 60 33 305 149 131 164 167 145 164
250 249 243 249 242 239 238 249 248 253 232 206 205 205 206 207 181 200 203 197 190 172 168 165 177 157 190 112 305 56 258 121 194 278 48 277 192 197 180 215 159 180 155 166 160 155 167
Wind_Speed_850mb
13 15 14 14 12 11 12 13 14 18 22 26 28 30 34 38 41 47 50 47 51 38 29 21 13 9 9 8 9 39 46 35 22 19 20 22 22 22 16 23 38 33 32 37 36 41 43
15 16 17 16 16 14 14 14 17 19 23 25 29 31 35 39 43 48 49 47 46 29 18 19 12 8 8 3 24 31 36 34 29 24 30 30 24 26 28 27 22 32 38 38 42 45 46
16 16 19 20 17 18 17 18 19 20 23 26 29 32 35 39 43 48 45 47 33 23 13 20 8 13 9 6 21 37 37 36 28 35 41 27 21 18 16 20 24 29 33 32 37 44 21
22 17 20 22 21 20 19 19 21 21 24 27 30 33 36 40 44 48 42 45 26 15 9 13 6 11 4 20 33 30 43 53 35 14 10 10 10 19 24 23 30 31 27 23 17 4 17
26 21 21 23 24 24 21 21 20 23 25 27 30 33 37 40 44 46 41 35 20 15 10 11 24 5 6 17 48 36 49 53 33 10 12 4 6 12 13 13 15 7 22 33 30 31 30
29 25 23 22 25 27 26 24 21 23 26 27 29 32 38 41 45 42 39 23 12 19 7 8 18 4 10 27 26 39 64 41 14 18 8 8 6 8 4 11 15 29 28 24 37 32 39
32 29 26 25 24 28 30 25 24 24 27 28 29 31 37 42 45 35 36 14 11 8 18 16 6 2 19 40 20 46 73 22 22 7 13 9 6 13 22 17 23 29 32 40 37 33 26
36 31 29 25 24 27 30 28 27 25 28 29 29 30 35 41 46 28 30 14 7 6 5 9 16 9 18 23 17 48 64 24 20 17 24 2 11 20 24 26 29 31 41 40 31 22 25
39 34 31 26 27 24 27 30 30 28 29 30 29 30 33 40 41 37 30 30 10 16 2 2 6 5 15 21 14 40 48 23 18 17 19 5 13 23 28 28 33 34 36 28 38 42 35
43 39 35 33 29 29 27 33 37 31 30 31 29 29 32 35 20 33 26 33 4 12 4 6 2 12 22 11 3 36 35 15 12 11 13 11 17 28 26 26 38 35 31 40 40 17 9
50 47 43 40 39 33 34 36 34 35 31 31 28 28 30 33 30 18 32 21 11 8 4 7 5 11 16 20 18 36 31 15 10 16 3 7 19 23 16 31 43 15 48 37 35 15 3
53 53 49 48 47 41 38 40 34 35 29 30 27 27 28 32 32 24 32 8 9 6 4 5 5 12 14 26 11 26 17 41 2 9 9 11 22 5 14 35 24 51 33 20 4 5 0
62 61 54 54 50 47 35 40 35 35 29 29 28 25 27 29 18 30 24 7 7 9 6 14 8 12 12 12 10 18 15 24 17 15 14 23 9 11 24 31 12 39 31 8 7 5 7
62 65 58 56 60 48 39 39 33 35 28 28 28 25 28 26 17 24 9 1 12 0 5 3 7 13 6 12 9 24 12 11 20 13 7 12 13 12 12 11 21 20 10 6 8 9 9
37 71 69 64 63 56 45 39 35 33 27 26 26 26 26 15 17 13 4 9 8 5 4 7 6 4 4 5 8 13 9 12 12 14 9 11 9 14 15 10 31 17 11 15 8 9 6
48 45 64 61 67 61 49 41 34 28 27 23 23 25 21 9 14 2 6 6 6 5 2 2 7 4 6 11 11 14 14 8 12 19 6 5 12 10 5 15 20 10 12 6 6 11 12
28 33 51 70 59 61 51 44 33 28 25 18 16 11 6 5 1 3 5 6 5 6 2 3 6 4 5 7 9 7 12 3 15 16 13 1 4 13 12 12 16 16 9 8 4 4 4
37 23 35 41 58 59 54 46 36 32 22 16 7 3 3 2 5 5 5 9 7 8 4 5 5 0 2 3 6 5 7 7 25 20 9 5 5 8 7 10 11 19 14 8 5 11 2
49 44 26 35 40 60 56 48 38 33 25 15 7 6 5 7 5 3 1 3 3 7 8 7 6 6 3 3 2 3 8 8 16 15 7 9 6 8 9 5 7 9 20 19 9 4 6
53 58 37 34 41 52 61 48 41 32 29 27 6 1 5 7 6 10 9 6 6 3 5 5 5 8 4 2 4 7 7 2 6 12 4 3 2 7 9 12 2 7 13 24 10 4 12
54 61 55 39 33 45 66 51 44 38 34 29 11 5 6 3 3 6 5 13 9 8 3 9 5 10 10 4 4 7 8 8 6 12 3 4 3 1 10 6 3 4 2 11 10 8 3
55 59 59 54 44 45 66 54 49 44 42 39 11 9 8 5 9 11 4 10 13 8 13 6 7 7 9 9 9 11 2 3 5 13 11 2 4 5 8 9 8 10 7 3 8 10 7
42 58 57 58 53 37 68 58 57 56 56 25 34 14 7 7 6 6 7 10 12 19 7 8 13 9 4 14 14 15 12 9 6 1 6 8 6 7 7 8 7 8 4 4 0 1 5
47 47 55 56 62 51 43 73 68 63 61 46 29 21 13 4 3 8 9 7 9 6 10 9 11 6 4 4 8 4 8 13 16 12 13 7 7 2 8 6 10 10 2 15 11 6 4
48 47 50 54 60 60 42 55 77 71 66 62 33 22 13 5 8 5 17 11 18 12 6 9 8 7 5 3 3 5 4 6 6 4 10 9 5 7 3 1 5 2 8 10 9 5 9
52 49 52 49 56 61 54 47 63 70 69 60 62 32 10 17 14 11 13 18 8 6 4 5 7 12 4 3 1 1 5 4 3 6 8 9 6 2 5 2 4 9 6 18 8 6 20
56 53 50 52 44 64 66 46 62 78 75 67 60 44 19 7 16 25 8 11 16 10 6 9 9 8 11 3 3 5 5 1 2 7 9 4 4 7 4 5 11 7 22 18 9 10 40
62 56 54 53 55 55 66 51 50 72 83 73 66 53 37 12 21 25 17 12 17 15 8 20 10 5 1 3 4 3 4 7 0 6 10 12 10 7 3 2 12 32 18 12 12 36 47
63 59 58 52 60 53 63 47 46 65 76 78 63 59 47 19 13 24 23 16 16 20 15 32 4 9 12 4 1 4 3 3 2 5 2 4 10 6 12 9 4 50 5 15 50 59 45
Wind_Direction_850mb
314 315 307 312 317 322 326 327 330 330 334 334 339 343 341 344 346 343 344 345 341 342 344 354 9 31 124 88 42 332 336 352 2 332 323 319 309 306 280 314 312 283 277 284 305 310 306
306 309 308 303 311 316 316 319 322 323 328 332 335 338 339 342 344 343 343 346 342 346 356 8 3 101 94 118 344 335 335 340 328 319 311 301 287 296 288 272 268 300 301 297 292 286 284
295 304 305 303 307 310 312 313 315 322 325 328 331 334 337 340 344 343 345 345 348 352 11 21 48 113 73 72 2 330 349 332 320 299 301 298 279 269 298 306 290 303 288 286 277 266 249
291 293 295 301 305 301 306 309 311 322 322 326 327 332 335 339 344 344 347 346 353 12 32 29 76 69 61 349 352 341 347 337 334 324 313 311 284 267 265 274 291 272 265 276 303 182 276
287 286 293 298 299 299 299 300 309 317 320 323 325 331 333 338 344 345 349 350 8 10 80 64 32 24 70 340 335 357 337 341 328 341 310 289 308 270 307 275 299 16 323 312 308 317 320
286 278 288 293 297 296 298 295 310 312 315 318 323 330 331 337 343 345 352 356 25 41 83 31 27 356 38 340 345 358 345 356 339 333 276 246 279 267 217 335 312 311 304 301 301 311 297
287 280 284 286 290 297 292 301 303 308 310 314 321 329 330 336 342 347 357 18 360 38 59 74 19 294 315 343 8 349 358 17 3 331 353 317 297 0 331 321 299 293 307 307 304 302 2
281 280 280 281 285 288 297 300 301 308 307 310 318 326 331 336 340 347 1 21 342 245 115 42 30 350 320 0 338 359 8 31 356 11 341 56 30 351 318 295 314 321 313 305 302 335 319
271 275 273 274 284 290 297 307 301 304 305 307 314 323 331 336 339 344 4 4 354 148 253 50 347 348 1 1 18 7 7 349 342 355 348 346 334 331 335 334 327 320 302 315 312 317 288
265 266 266 270 275 284 290 300 300 298 300 303 311 321 328 339 342 343 347 349 43 143 96 348 13 355 351 325 162 357 5 18 16 337 344 290 328 346 340 317 340 315 336 310 301 319 296
262 263 264 268 277 279 285 287 289 293 294 298 305 316 327 336 333 339 338 344 127 105 338 351 30 26 2 56 330 345 10 357 2 323 14 317 319 332 320 336 331 309 313 301 289 261 256
257 258 261 267 275 276 280 283 288 282 285 290 298 311 322 330 331 334 340 19 100 58 320 54 60 11 2 31 15 344 3 19 340 292 278 281 287 350 352 332 320 335 314 298 202 125 261
255 256 259 265 270 274 269 277 281 275 279 285 294 305 316 322 313 330 337 62 38 80 332 338 337 350 320 349 335 348 347 42 32 354 10 317 78 14 9 334 360 345 353 356 20 29 44
263 255 254 265 263 267 263 270 277 273 274 281 288 302 308 313 310 333 353 250 68 323 278 60 348 313 38 6 344 332 353 4 46 12 295 353 343 26 342 47 330 346 37 55 346 346 321
275 257 255 261 257 259 258 261 268 266 268 277 290 299 304 318 318 331 69 54 171 213 286 3 334 335 1 23 357 330 76 5 30 51 42 347 293 346 47 21 18 323 29 290 274 211 266
295 266 248 263 247 250 249 253 257 261 260 272 290 305 290 268 323 349 73 129 120 59 168 57 58 55 319 336 8 359 9 36 354 34 97 353 295 314 96 7 24 10 337 4 326 17 338
312 286 275 253 248 248 243 243 244 255 252 264 293 299 260 290 353 77 112 128 139 132 191 90 113 282 263 332 329 331 334 88 17 3 324 74 180 301 39 31 27 5 17 322 237 92 259
287 300 264 274 255 247 240 237 234 241 240 245 255 293 230 297 52 46 98 142 125 146 210 128 121 234 235 67 289 299 316 341 9 355 329 79 285 288 212 200 73 85 351 330 45 321 239
269 277 289 293 259 243 232 232 227 230 225 214 234 252 224 187 154 119 143 62 141 157 175 170 148 133 53 205 354 265 315 35 6 24 11 328 335 315 336 269 101 35 358 341 287 276 295
261 271 291 295 304 250 229 223 219 219 213 206 246 309 199 178 148 137 148 167 145 183 135 138 100 128 132 235 209 291 291 317 11 13 352 250 304 145 187 222 210 23 342 354 357 58 318
261 263 275 278 320 269 229 216 211 209 206 199 216 242 186 190 241 128 118 148 141 172 229 167 191 200 190 178 185 236 250 290 139 352 108 49 247 139 276 237 225 130 352 14 11 344 58
268 256 260 266 283 289 236 213 206 202 200 202 204 173 155 120 134 127 175 216 163 157 152 204 178 177 173 194 204 196 130 20 12 332 349 45 290 128 270 240 164 313 73 73 40 343 306
278 269 252 260 267 296 242 216 206 205 199 194 209 214 180 160 135 128 209 177 191 144 193 138 175 145 202 244 254 240 242 254 245 122 325 323 338 5 292 181 148 5 316 91 341 270 290
268 274 261 248 259 270 281 230 213 209 209 202 201 189 186 171 185 201 155 138 152 174 140 149 161 139 170 249 296 237 237 242 244 234 172 323 333 346 280 77 37 242 46 138 138 217 265
268 269 272 248 251 259 268 255 219 212 208 208 208 200 191 146 170 146 158 124 114 116 88 146 151 187 184 343 297 349 317 27 307 253 194 176 296 307 54 276 209 161 222 175 148 288 194
261 261 262 255 249 255 258 267 253 224 212 208 211 213 202 140 219 138 153 169 148 136 110 124 178 191 167 272 323 109 252 197 311 10 208 165 192 304 343 116 226 211 217 138 116 348 185
255 255 255 252 244 250 250 261 255 233 214 208 212 212 208 181 164 163 178 176 162 144 106 146 164 171 181 180 212 196 266 136 209 174 183 226 230 222 238 270 292 178 155 149 84 220 170
251 252 250 252 242 244 247 254 246 247 219 206 207 210 208 202 179 195 179 161 153 168 153 147 115 198 134 150 181 212 199 206 52 200 177 173 161 212 60 33 305 149 131 164 167 145 164
250 249 243 249 242 239 238 249 248 253 232 206 205 205 206 207 181 200 203 197 190 172 168 165 177 157 190 112 305 56 258 121 194 278 48 277 192 197 180 215 159 180 155 166 160 155 167